Flag for Argentina Weather past 2 weeks in Formosa, Formosa, Argentina

Now
64 °F

Passing clouds.


Feels Like: 64 °F
Forecast: 63 / 76 °F
Wind: 3 mph from Southwest

Location: Formosa Aerodrome

Current Time: Sep 3, 2015 at 2:27:45 AM

Latest Report: Sep 3, 2015 at 2:00 AM


Visibility: N/A

Pressure: 29.98 "Hg

Humidity: 94%

Dew point: 63 °F

Location of FormosaLocation

Historic Weather in Formosa — Graph

°F

Formosa temperature yesterday

Maximum temperature yesterday: 73 °F (at 2:00 PM)
Minimum temperature yesterday: 61 °F (at 5:00 AM)
Average temperature yesterday: 66 °F

Past Weeks' High & Low Weather Summary

 TemperatureHumidityPressure
High99 °F (Aug 31, 3:00 PM)100% (Aug 19, 6:00 AM)30.18 "Hg (Aug 19, 6:00 AM)
Low48 °F (Aug 21, 4:00 AM)32% (Aug 30, 2:00 PM)29.65 "Hg (Aug 22, 4:00 PM)
Average70 °F73%29.96 "Hg
* Reported Aug 19 1:00 AM — Sep 3 1:00 AM, Formosa, Weather by CustomWeather, © 2015

Note: Actual official high and low records may vary slightly from our data, if they occured in-between our weather recording intervals... More about our weather records

Advertising

Formosa weather history for previous 24 hours

 ConditionsComfort  
Time TempWeatherWind HumidityBarometerVisibility
1:00 AM
Thu, Sep 3
64 °FClear.6 mph94%29.98 "Hg10 mi
12:00 AM64 °FClear.6 mph94%30.01 "Hg10 mi
11:00 PM
Wed, Sep 2
66 °FClear.6 mph88%30.01 "Hg10 mi
10:00 PM66 °FPassing clouds.7 mph88%30.01 "HgN/A
9:00 PM68 °FPassing clouds.8 mph88%29.98 "HgN/A
8:00 PM68 °FPassing clouds.3 mph94%29.98 "HgN/A
7:00 PM70 °FPassing clouds.6 mph83%29.95 "HgN/A
6:00 PM72 °FPassing clouds.8 mph78%29.95 "HgN/A
5:00 PM70 °FSprinkles. Scattered clouds.2 mph88%29.95 "Hg4 mi
4:00 PM72 °FSprinkles. Scattered clouds.7 mph78%29.95 "HgN/A
3:00 PM73 °FScattered clouds.8 mph69%29.98 "HgN/A
2:00 PM73 °FScattered clouds.8 mph69%29.98 "HgN/A
1:00 PM72 °FScattered clouds.7 mph69%30.01 "HgN/A
12:00 PM72 °FPassing clouds.3 mph69%30.04 "HgN/A
11:00 AM68 °FPassing clouds.7 mph73%30.07 "HgN/A
10:00 AM64 °FPassing clouds.2 mph78%30.07 "HgN/A
9:00 AM63 °FPassing clouds.8 mph83%30.07 "HgN/A
8:00 AM61 °FScattered clouds.8 mph88%30.07 "HgN/A
7:00 AM61 °FPartly sunny.6 mph88%30.04 "HgN/A
6:00 AM61 °FPassing clouds.7 mph88%30.04 "HgN/A
5:00 AM61 °FPassing clouds.7 mph88%30.01 "HgN/A
4:00 AM63 °FPassing clouds.7 mph88%30.01 "HgN/A
3:00 AM63 °FOvercast.10 mph88%30.04 "HgN/A
2:00 AM63 °FOvercast.10 mph94%30.04 "HgN/A
Weather by CustomWeather, © 2015

See weather overviewHow to use our weather pages